This is the latest recevied weather packets stored in our database for station/object W4JCW. If no packets are shown the sender has not sent any weather packets the latest 10 day(s).
| Time | Temp. | Humidity | Pressure | Rain* | Wind** | Luminosity | Snow |
|---|---|---|---|---|---|---|---|
| 1778012203 | 27.22° C | 38% | 1013.1 hPa | 0 mm | - | 509 W/m² | - |
| 1778011901 | 27.22° C | 37% | 1013.2 hPa | 0 mm | - | 385 W/m² | - |
| 1778011599 | 27.78° C | 39% | 1013 hPa | 0 mm | - | 233 W/m² | - |
| 1778011296 | 27.78° C | 37% | 1013.2 hPa | 0 mm | - | 554 W/m² | - |
| 1778010992 | 27.78° C | 37% | 1013.2 hPa | 0 mm | - | 533 W/m² | - |
| 1778010689 | 27.78° C | 37% | 1013.6 hPa | 0 mm | - | 716 W/m² | - |
| 1778010386 | 27.22° C | 39% | 1013.6 hPa | 0 mm | - | 757 W/m² | - |
| 1778010082 | 27.78° C | 39% | 1013.5 hPa | 0 mm | - | 270 W/m² | - |
| 1778009779 | 27.78° C | 40% | 1013.8 hPa | 0 mm | - | 731 W/m² | - |
| 1778009476 | 27.22° C | 40% | 1013.6 hPa | 0 mm | - | 828 W/m² | - |
| 1778009175 | 27.22° C | 39% | 1013.8 hPa | 0 mm | - | 848 W/m² | - |
| 1778008872 | 27.22° C | 40% | 1013.8 hPa | 0 mm | - | 887 W/m² | - |
| 1778008570 | 27.78° C | 39% | 1014 hPa | 0 mm | - | 946 W/m² | - |
| 1778008268 | 27.78° C | 39% | 1014 hPa | 0 mm | - | 920 W/m² | - |
| 1778007963 | 28.33° C | 39% | 1014.4 hPa | 0 mm | - | 929 W/m² | - |
| 1778007658 | 28.33° C | 40% | 1014.3 hPa | 0 mm | - | 924 W/m² | - |
| 1778007355 | 27.78° C | 40% | 1014.5 hPa | 0 mm | - | 962 W/m² | - |
| 1778007051 | 27.78° C | 40% | 1014.6 hPa | 0 mm | - | 1031 W/m² | - |
| 1778006748 | 27.78° C | 40% | 1014.6 hPa | 0 mm | - | 744 W/m² | - |
| 1778006445 | 27.22° C | 42% | 1014.5 hPa | 0 mm | - | 972 W/m² | - |
| 1778006142 | 27.22° C | 41% | 1014.7 hPa | 0 mm | - | 989 W/m² | - |
| 1778005839 | 27.78° C | 41% | 1014.7 hPa | 0 mm | - | 1007 W/m² | - |
| 1778005535 | 27.22° C | 41% | 1014.8 hPa | 0 mm | - | 996 W/m² | - |
| 1778005232 | 27.78° C | 41% | 1014.5 hPa | 0 mm | - | 996 W/m² | - |
| 1778004929 | 27.22° C | 43% | 1014.7 hPa | 0 mm | - | 1068 W/m² | - |
* Rain latest hour (hover to see other rain measurements)
** Current wind speed in m/s (hover to see current wind gust speed)